Regional Weather Roundup
Issued by NWS San Angelo, TX

Home | Current Version | Previous Version | Text Only | Print | Product List | Glossary On
Versions: 1 2 3 4 5 6 7 8 9 10 11 12 13 14 15 16 17 18 19 20 21 22 23 24 25 26 27 28 29 30 31 32 33 34 35 36 37 38 39 40 41 42 43 44 45 46 47 48 49 50
000
ASUS44 KSJT 231010
RWRSJT
WEST CENTRAL TEXAS REGIONAL WEATHER ROUNDUP
NATIONAL WEATHER SERVICE SAN ANGELO TX
400 AM CST THU NOV 23 2017

NOTE: "FAIR" INDICATES FEW OR NO CLOUDS BELOW 12,000 FEET WITH NO
SIGNIFICANT WEATHER AND/OR OBSTRUCTIONS TO VISIBILITY.

TXZ049-054-064>066-071>073-076>078-098-099-113-114-127-128-139-140-
154-155-168>170-231100
...LOCATIONS ACROSS WEST CENTRAL TEXAS...

CITY           SKY/WX    TMP DP  RH WIND       PRES   REMARKS
SAN ANGELO     CLOUDY    33  25  72 SW3       30.22S
ABILENE        CLOUDY    39  24  55 S8        30.19F WCI  33
DYESS AFB      CLOUDY    35  26  68 SW8       30.18F WCI  29
JUNCTION       CLOUDY    29  22  75 W3        30.22F
SWEETWATER     CLOUDY    43  24  46 SW14      30.21S WCI  36
BROWNWOOD      CLOUDY    28  23  80 CALM      30.21F
COLEMAN        SUNNY     33  27  79 CALM      30.20F
SONORA         CLOUDY    28  19  69 CALM      30.26F
OZONA          FAIR      30  21  69 CALM      30.24F
BRADY          NOT AVBL
$$

TEXAS PANHANDLE/OKLAHOMA PANHANDLE

CITY           SKY/WX    TMP DP  RH WIND       PRES   REMARKS
AMARILLO       CLOUDY    48  29  47 NW10      30.19S
BORGER         CLOUDY    47  30  51 SW10      30.16F
CANADIAN       CLOUDY    36  29  78 CALM      30.14F
DALHART        CLOUDY    41  30  65 W6        30.21S WCI  37
DUMAS          CLOUDY    45  28  52 W10       30.18F WCI  39
GUYMON         NOT AVBL
HEREFORD       CLOUDY    37  29  74 MISG      30.21S
PAMPA          CLOUDY    46  31  56 W12       30.16F
PERRYTON       CLOUDY    41  31  67 W9        30.13S WCI  35
$$

SOUTHERN PANHANDLE/SOUTH PLAINS/ROLLING PLAINS

CITY           SKY/WX    TMP DP  RH WIND       PRES   REMARKS
LUBBOCK        CLOUDY    38  27  64 W6        30.18F WCI  33
SNYDER         CLEAR     38  26  60 SW7       30.20S WCI  33
CHILDRESS      CLOUDY    36  25  64 NW7       30.15S WCI  30
SEMINOLE       CLOUDY    35  27  74 NW6       30.22S WCI  30
$$

PERMIAN BASIN

CITY           SKY/WX    TMP DP  RH WIND       PRES   REMARKS
MIDLAND        CLOUDY    36  27  69 N3        30.20S
ODESSA         CLOUDY    37  26  64 N7        30.20F WCI  32
WINK           CLOUDY    33  27  78 N7        30.19F WCI  27
$$

FAR WEST/SOUTHWEST MOUNTAINS/TRANS PECOS

CITY           SKY/WX    TMP DP  RH WIND       PRES   REMARKS
ALPINE         CLOUDY    44  22  41 SW8       30.29S WCI  39
DRYDEN           N/A     43  29  57 W9        30.20S WCI  38
EL PASO        PTCLDY    41  26  55 NE7       30.25S WCI  36
FORT STOCKTON  CLOUDY    49  25  39 SW13      30.19S
GUADALUPE PASS CLOUDY    48  25  40 SW10      30.28F
MARFA          CLOUDY    30  17  58 NE5       30.27F WCI  25
PECOS          CLOUDY    35  25  67 NW5       30.20F WCI  31
$$

DALLAS/FORT WORTH METROPLEX

CITY           SKY/WX    TMP DP  RH WIND       PRES   REMARKS
DFW AIRPORT    CLOUDY    39  29  67 SW3       30.19F
FTW MEACHAM    CLOUDY    39  31  72 CALM      30.20F
DAL-EXECUTIVE  CLOUDY    37  28  70 W3        30.20F
GRAND PRAIRIE  CLOUDY    38  28  67 CALM      30.23S
ADDISON        CLEAR     38  29  70 CALM      30.22F
MESQUITE       CLOUDY    31  27  84 CALM      30.22S
LANCASTER      CLOUDY    32  27  82 CALM      30.23S
$$

NORTH CENTRAL TEXAS

CITY           SKY/WX    TMP DP  RH WIND       PRES   REMARKS
SHRMAN/DENISON CLOUDY    34  26  72 CALM      30.21F
GAINESVILLE    CLOUDY    31  24  75 CALM      30.22S
BRIDGEPORT     CLOUDY    30  25  84 CALM      30.22S
DENTON         PTCLDY    30  25  81 CALM      30.21S
WAXAHACHIE     CLOUDY    34  29  82 CALM      30.22F
GRANBURY       CLOUDY    33  27  77 CALM      30.22F
$$

WESTERN NORTH TEXAS

CITY           SKY/WX    TMP DP  RH WIND       PRES   REMARKS
WICHITA FALLS  CLOUDY    34  21  59 S5        30.17F WCI  30
VERNON         CLOUDY    36  18  49 CALM      30.17S
BRECKENRIDGE   CLOUDY    36  24  63 CALM      30.19F
COMANCHE       CLOUDY    40  23  51 CALM      30.20F
$$

CENTRAL AND SOUTH CENTRAL TEXAS

CITY           SKY/WX    TMP DP  RH WIND       PRES   REMARKS
AUSTIN/BERGSTM CLOUDY    33  30  88 CALM      30.22F
WACO           CLOUDY    30  26  85 W6        30.22F WCI  24
HILLSBORO      CLOUDY    35  26  71 CALM      30.21S
TEMPLE         CLOUDY    31  25  78 N5        30.23F WCI  26
KILLEEN-GRAY   CLEAR     37  23  56 CALM      30.20F
FORT HOOD      CLOUDY    40  23  50 CALM      30.18F HAZE
GEORGETOWN     CLOUDY    36  25  64 W3        30.24F
LAGO VISTA     FAIR      44  22  42 W3        30.21F
SAN MARCOS     CLOUDY    38  26  62 NW9       30.22F WCI  31
NEW BRAUNFELS  CLOUDY    37  26  64 N7        30.20F WCI  32
RANDOLPH AFB   CLOUDY    36  27  69 NW7       30.21S WCI  30
SAN ANTONIO    CLEAR     38  26  62 NW7       30.22F WCI  33
STINSON        CLOUDY    41  30  65 CALM      30.21S
PLEASANTON     NOT AVBL
LA GRANGE      CLOUDY    40  30  69 CALM      30.20S
GIDDINGS       CLOUDY    39  28  63 N5        30.22S WCI  36
$$

EAST TEXAS

CITY           SKY/WX    TMP DP  RH WIND       PRES   REMARKS
PARIS          CLOUDY    34  25  69 CALM      30.20F
CLARKSVILLE    NOT AVBL
TYLER          CLOUDY    34  30  85 CALM      30.20F
LONGVIEW       PTCLDY    33  33 100 S3        30.19F
PALESTINE      CLOUDY    32  31  96 CALM      30.23S
NACOGDOCHES    CLOUDY    32  30  92 CALM      30.20F
$$

TEXAS HILL COUNTRY AND EDWARDS PLATEAU

CITY           SKY/WX    TMP DP  RH WIND       PRES   REMARKS
LLANO          CLOUDY    30  27  86 CALM      30.26F
HORSESHOE BAY  FAIR      32  27  81 S3        30.22F
KERRVILLE      CLOUDY    31  28  90 CALM      30.22S
FREDERICKSBRG  CLOUDY    30  24  79 CALM      30.22F
ROCKSPRINGS    NOT AVBL
HONDO          CLOUDY    35  23  61 N6        30.22F WCI  30
UVALDE         CLOUDY    35  29  79 CALM      30.23F
DEL RIO        CLOUDY    38  32  79 CALM      30.21F
$$

SOUTHEAST TEXAS

CITY           SKY/WX    TMP DP  RH WIND       PRES   REMARKS
COLLEGE STN    CLOUDY    42  29  59 N6        30.21F WCI  38
CALDWELL       CLOUDY    37  27  68 N6        30.22S WCI  32
CROCKETT         N/A     32  32 100 CALM      30.23F
BRENHAM        CLOUDY    39  32  75 CALM      30.22S
HUNTSVILLE     CLOUDY    36  32  85 CALM      30.21S
CONROE         CLEAR     39  35  86 N6        30.20S WCI  35
HOUSTON BUSH   CLEAR     45  36  70 N5        30.19S
HOUSTON HOBBY  CLEAR     45  38  76 N8        30.18S
PERLAND        CLEAR     49  39  68 N3        30.20S
WHARTON        SUNNY     40  34  78 N6        30.21S WCI  36
$$

THE UPPER TEXAS COAST

CITY           SKY/WX    TMP DP  RH WIND       PRES   REMARKS
ORANGE         MOSUNNY   42  38  86 N3        30.20S
PORT ARTHUR    CLEAR     41  37  86 N5        30.17S WCI  38
GALVESTON      CLEAR     53  44  71 NE15      30.18S
ANGLETON       CLEAR     45  37  73 N3        30.18F
BAY CITY       SUNNY     44  37  77 N3        30.19S
$$

TEXAS COASTAL BEND, RIO GRANDE PLAINS DEEP SOUTH TEXAS

CITY           SKY/WX    TMP DP  RH WIND       PRES   REMARKS
VICTORIA       CLEAR     38  33  82 N6        30.21S WCI  33
BEEVILLE       FAIR      42  34  72 N7        30.20S WCI  37
ROCKPORT       CLEAR     50  39  66 N9        30.19S
PORT ARANSAS   NOT AVBL
PORT LAVACA    SUNNY     40  36  83 N6        30.21R WCI  36
CORPUS CHRISTI CLEAR     44  36  73 NW5       30.19F
KINGSVILLE NAS CLEAR     42  39  89 NW8       30.20S WCI  37
COTULLA        CLOUDY    38  31  76 N6        30.24S WCI  33
LAREDO         CLEAR     43  38  82 CALM      30.24S
BROWNSVILLE    CLEAR     52  47  83 NW7       30.18S
PORT ISABEL    CLEAR     52  47  83 NW7       30.16F
HEBBRONVILLE   SUNNY     44  36  74 N6        30.22S
MCALLEN        CLEAR     50  46  86 W3        30.21S
WESLACO        CLEAR     48  44  86 NW6       30.19S
FALFURRIAS     NOT AVBL
EDINBURG       SUNNY     46  43  88 CALM      30.21R
$$




USA.gov is the U.S. government's official web portal to all federal, state and local government web resources and services.